User: anonymous   Login
Location: Meriden
(44.0740°N, 93.3870°W)
Time: 23:15:04
(UTC-05:00)
Language:

Hamsat - Orbit

View from above orbital plane
View from above orbital plane
View from above satellite
View from above satellite

Ground track
Ground track

The orbit data is extracted from the following two-line orbital elements,

1 28650U 05017B   17146.57870054 +.00000278 +00000-0 +35468-4 0  9996
2 28650 097.6494 121.6510 0022940 198.5704 161.4679 14.88656175652883
Epoch (UTC): 26 May 2017 13:53:19
Eccentricity: 0.0022940
inclination: 97.6494°
perigee height: 586 km
apogee height: 618 km
right ascension of ascending node: 121.6510°
argument of perigee: 198.5704°
revolutions per day: 14.88656175
mean anomaly at epoch: 161.4679°
orbit number at epoch: 65288

The dashed part of the orbit path shows where the satellite is in the earth's shadow,  

DLR